Вернуться в каталог

COSMOS 1503

АктивенНавигацияLEO
NORAD 14401·PAYLOAD·🇷🇺 Russia

Запущен Oct 12, 1983 с Plesetsk Cosmodrome

Loading…

Ближайшие Пролёты (ближайшие 24 часа)

TLE

СвежийSource: Space-Track

Эпоха: Sep 14, 2026, 09:21 UTC

1 14401U 83103A   26257.38959270  .00000070  00000-0  35011-4 0  9991
2 14401  74.0444 310.7282 0012413  46.5706 313.6476 14.33143548242269

Отслеживайте COSMOS 1503 в реальном времени с AllMySat

Download on the App Store